EW8815 Weather Reports


time (UTC)temp
C
wind
direction
speed
KPH
gust
KPH
rain 1hr
cm
rain 24hr
cm
rain mn
cm
humidity
%
barometer
mb
20260507010657 7 85 4.8 6.4 0.00 0.99 0.00 83 8.1
20260507000613 7 105 4.8 4.8 0.00 0.99 0.00 83 8.1
20260506230614 8 100 4.8 4.8 0.00 0.99 0.00 83 8.1
20260506190653 10 135 3.2 4.8 0.00 1.12 0.99 83 5.7
20260506181214 10 135 9.7 9.7 0.00 1.12 0.99 82 3.6
20260506170613 10 55 1.6 6.4 0.00 1.12 0.99 82 4.6
20260506160654 11 65 8.0 8.0 0.00 1.12 0.99 84 4.5
20260506150611 12 50 11.3 11.3 0.00 1.12 0.99 81 3.3
20260506140610 12 95 9.7 9.7 0.23 1.17 0.99 83 3.3
20260506130657 12 275 4.8 11.3 0.74 0.99 0.76 83 2.2
20260506120611 13 265 8.0 8.0 0.03 0.36 0.03 79 2.1
20260506110612 13 25 9.7 14.5 0.00 0.41 0.00 76 2.0
20260506100658 12 305 17.7 17.7 0.00 0.41 0.00 80 2.2
20260506090613 13 240 12.9 14.5 0.00 0.41 0.00 77 2.1
20260506080611 12 70 8.0 12.9 0.00 0.41 0.00 81 2.3
20260506060615 11 220 11.3 12.9 0.00 0.41 0.00 82 2.4
20260506050612 11 95 0.0 6.4 0.00 0.41 0.00 84 2.4
20260506040656 11 330 4.8 4.8 0.00 0.41 0.00 85 2.4
20260506030611 10 240 0.0 0.0 0.00 0.41 0.00 88 2.5
20260506020611 10 275 3.2 3.2 0.00 0.41 0.00 88 2.5